(355866) = 2005 YU78 = 2008 UY308

Discovered at Kitt Peak on 2008-10-30 by Spacewatch.

Orbit

Orbit type: Main Belt

Note: WebGL enabled browser required.

epoch2024-03-31.0
epoch JD2460400.5
perihelion date2021-07-26.77602
perihelion JD2459422.27602
argument of perihelion (°)62.52191
ascending node (°)289.27008
inclination (°)4.55093
eccentricity0.2090846
perihelion distance (AU)1.7427581
Tisserand w.r.t. Jupiter3.6
ΔV w.r.t. Earth (km/sec)8.2
semimajor axis (AU)2.2034698
mean anomaly (°)294.76879
mean daily motion (°/day)0.30133060
aphelion distance (AU)2.664
period (years)3.27
P-vector [x]0.98711588
P-vector [y]-0.15983444
P-vector [z]0.00742853
Q-vector [x]0.14139399
Q-vector [y]0.89308031
Q-vector [z]0.42710105
absolute magnitude18.05
phase slope0.15
uncertainty0
referenceMPEC 2024-C181
observations used226
oppositions10
arc length (days)6321
first opposition used2005
last opposition used2023
residual rms (arc-secs)0.80
perturbers coarse indicatorM-v
perturbers precise indicator003Ek
first observation date used2005-12-05.0
last observation date used2023-03-27.0
computer nameMPCLINUX
JD of orbit computation2456376.476850
perihelion JD uncertainty (days)4.8480E-05
argument of perihelion uncertainty (°)6.1926E-05
ascending node uncertainty (°)5.8325E-05
inclination uncertainty (°)4.5079E-06
eccentricity uncertainty 1.2219E-07
perihelion distance uncertainty (AU)3.0041E-07
Minimum Orbit Intersection Distances (in AU)
for orbit epoch: 2460400.5, reference: E2024-CI1
Mercury1.36897
Venus1.02596
Earth0.7425
Mars0.38646
Jupiter2.76911
Saturn6.64018
Uranus15.7879
Neptune27.7574

Observations

240 total observations over interval: 2005 12 05.39943 – 2023 03 27.338164
These data are available for download (format description).

Date (UT) J2000 RA J2000 Dec Magn Location Ref
2005 12 05.39943 07 27 03.56 +23 55 16.3 20.8 V G96 – Mt. Lemmon Survey MPS 265389
2005 12 05.40525 07 27 03.27 +23 55 15.9 21.1 V G96 – Mt. Lemmon Survey MPS 265389
2005 12 05.41102 07 27 02.95 +23 55 16.1 21.1 V G96 – Mt. Lemmon Survey MPS 265389
2005 12 05.41681 07 27 02.73 +23 55 15.9 20.5 V G96 – Mt. Lemmon Survey MPS 265389
2005 12 24.29832 07 07 40.68 +23 53 19.1   691 – Steward Observatory, Kitt Peak-Spacewatch MPS 156751
2005 12 24.31912 07 07 39.08 +23 53 19.2   691 – Steward Observatory, Kitt Peak-Spacewatch MPS 156751
2005 12 24.33650 07 07 37.73 +23 53 18.5   691 – Steward Observatory, Kitt Peak-Spacewatch MPS 156751
2005 12 28.31378 07 02 36.67 +23 52 02.2 20.7 V 691 – Steward Observatory, Kitt Peak-Spacewatch MPS 156751
2005 12 28.33113 07 02 35.29 +23 52 01.5 20.7 V 691 – Steward Observatory, Kitt Peak-Spacewatch MPS 156751
2005 12 28.34851 07 02 33.92 +23 52 01.2 20.9 V 691 – Steward Observatory, Kitt Peak-Spacewatch MPS 156751
2006 01 05.23246 06 52 26.87 +23 47 22.2 21.1 V 691 – Steward Observatory, Kitt Peak-Spacewatch MPS 265389
2006 01 05.25325 06 52 25.31 +23 47 21.6 20.4 V 691 – Steward Observatory, Kitt Peak-Spacewatch MPS 265389
2006 01 05.27063 06 52 23.90 +23 47 21.3 20.3 V 691 – Steward Observatory, Kitt Peak-Spacewatch MPS 265389
2008 10 22.31424 03 48 56.01 +28 18 23.2 20.2 V 691 – Steward Observatory, Kitt Peak-Spacewatch MPS 265389
2008 10 22.33192 03 48 55.22 +28 18 21.8 20.0 V 691 – Steward Observatory, Kitt Peak-Spacewatch MPS 265389
2008 10 22.34959 03 48 54.41 +28 18 20.3 20.1 V 691 – Steward Observatory, Kitt Peak-Spacewatch MPS 265389
2008 10 26.26713 03 45 54.58 +28 10 38.7 19.5 V 691 – Steward Observatory, Kitt Peak-Spacewatch MPS 265389
2008 10 26.28485 03 45 53.58 +28 10 37.5 19.9 V 691 – Steward Observatory, Kitt Peak-Spacewatch MPS 265389
2008 10 26.30256 03 45 52.62 +28 10 35.2 19.9 V 691 – Steward Observatory, Kitt Peak-Spacewatch MPS 265389
2008 10 30.27753 03 42 18.01 +27 58 59.7 19.8 V 691 – Steward Observatory, Kitt Peak-Spacewatch MPS 264819
2008 10 30.29525 03 42 16.87 +27 58 56.5 20.0 V 691 – Steward Observatory, Kitt Peak-Spacewatch MPS 264819
2008 10 30.31296 03 42 15.81 +27 58 53.0 20.0 V 691 – Steward Observatory, Kitt Peak-Spacewatch MPS 264820
2008 11 01.26005 03 40 21.00 +27 51 50.0 19.8 V 703 – Catalina Sky Survey MPS 264820
2008 11 01.26871 03 40 20.35 +27 51 46.8 20.0 V 703 – Catalina Sky Survey MPS 264820
2008 11 01.27733 03 40 19.81 +27 51 45.7 20.3 V 703 – Catalina Sky Survey MPS 264820
2008 11 01.28591 03 40 19.30 +27 51 43.3 20.7 V 703 – Catalina Sky Survey MPS 264820
2008 11 07.27387 03 33 55.90 +27 24 28.0 20.1 V 691 – Steward Observatory, Kitt Peak-Spacewatch MPS 264820
2008 11 07.29153 03 33 54.70 +27 24 22.7 19.9 V 691 – Steward Observatory, Kitt Peak-Spacewatch MPS 264820
2008 11 07.30919 03 33 53.43 +27 24 17.2 20.0 V 691 – Steward Observatory, Kitt Peak-Spacewatch MPS 264820
2008 11 18.21194 03 21 35.78 +26 16 51.2 19.1 V 703 – Catalina Sky Survey MPS 265389
2008 11 18.21881 03 21 35.35 +26 16 48.3 19.7 V 703 – Catalina Sky Survey MPS 265389
2008 11 18.22562 03 21 34.84 +26 16 44.7 21.0 V 703 – Catalina Sky Survey MPS 265389
2008 11 18.23246 03 21 34.41 +26 16 42.0 19.5 V 703 – Catalina Sky Survey MPS 265389
2008 11 21.32026 03 18 13.66 +25 54 39.1 19.9 C 704 – Lincoln Laboratory ETS, New Mexico MPS 288057
2008 11 21.33282 03 18 12.76 +25 54 34.7 19.7 C 704 – Lincoln Laboratory ETS, New Mexico MPS 288057
2008 11 21.34567 03 18 11.95 +25 54 28.5 19.4 C 704 – Lincoln Laboratory ETS, New Mexico MPS 288057
2008 12 01.28220 03 08 52.08 +24 40 39.7 19.6 V G96 – Mt. Lemmon Survey MPS 267714
2008 12 01.28885 03 08 51.72 +24 40 36.8 19.8 V G96 – Mt. Lemmon Survey MPS 267714
2008 12 01.29546 03 08 51.39 +24 40 33.8 19.7 V G96 – Mt. Lemmon Survey MPS 267714
2008 12 01.30221 03 08 51.03 +24 40 30.9 19.9 V G96 – Mt. Lemmon Survey MPS 267714
2011 08 20.98616 22 19 59.98 -02 49 49.7 18.9 V J75 – OAM Observatory, La Sagra MPS 388666
2011 08 20.99672 22 19 59.33 -02 49 50.0 18.7 V J75 – OAM Observatory, La Sagra MPS 388666
2011 08 21.00730 22 19 58.81 -02 49 49.0 18.6 V J75 – OAM Observatory, La Sagra MPS 388666
2011 08 27.93217 22 13 48.43 -02 53 53.6 18.5 V I93 – St Pardon de Conques MPS 389188
2011 08 27.95804 22 13 46.94 -02 53 55.5 18.6 V I93 – St Pardon de Conques MPS 389188
2011 08 27.98568 22 13 45.34 -02 53 57.2 18.6 V I93 – St Pardon de Conques MPS 389188
2011 08 28.44562 22 13 20.383 -02 54 25.02 19.5 g F51 – Pan-STARRS 1, Haleakala MPS 389188
2011 08 28.45608 22 13 19.771 -02 54 25.86 19.4 g F51 – Pan-STARRS 1, Haleakala MPS 389188
2011 08 28.46769 22 13 19.093 -02 54 26.60 18.9 r F51 – Pan-STARRS 1, Haleakala MPS 389188
2011 08 28.47759 22 13 18.517 -02 54 27.21 19.0 r F51 – Pan-STARRS 1, Haleakala MPS 389188
2011 08 28.92991 22 12 54.57 -02 55 03.7 18.8 V I93 – St Pardon de Conques MPS 389188
2011 08 28.96117 22 12 52.77 -02 55 06.0 18.8 V I93 – St Pardon de Conques MPS 389188
2011 08 28.99236 22 12 50.97 -02 55 08.3 18.6 V I93 – St Pardon de Conques MPS 389188
2011 08 30.35355 22 11 38.228 -02 56 52.24 19.7 g F51 – Pan-STARRS 1, Haleakala MPS 389188
2011 08 30.36514 22 11 37.558 -02 56 53.43 19.5 g F51 – Pan-STARRS 1, Haleakala MPS 389188
2011 08 30.38874 22 11 36.198 -02 56 55.33 19.0 r F51 – Pan-STARRS 1, Haleakala MPS 389188
2011 09 04.35612 22 07 18.370 -03 05 07.34 19.0 i F51 – Pan-STARRS 1, Haleakala MPS 391211
2011 09 04.36703 22 07 17.778 -03 05 08.55 18.9 i F51 – Pan-STARRS 1, Haleakala MPS 391211
2011 09 15.30708 21 59 30.177 -03 27 53.98 19.1 i F51 – Pan-STARRS 1, Haleakala MPS 391211
2011 09 15.31906 21 59 29.717 -03 27 55.49 19.3 i F51 – Pan-STARRS 1, Haleakala MPS 391211
2011 09 21.24645 21 56 43.30 -03 40 05.2 18.9   704 – Lincoln Laboratory ETS, New Mexico MPS 391211
2011 09 21.26211 21 56 42.91 -03 40 07.6 19.5   704 – Lincoln Laboratory ETS, New Mexico MPS 391211
2011 09 21.27549 21 56 42.64 -03 40 08.7 19.4   704 – Lincoln Laboratory ETS, New Mexico MPS 391211
2011 09 21.30241 21 56 41.96 -03 40 11.5 19.1   704 – Lincoln Laboratory ETS, New Mexico MPS 391211
2013 02 08.49262 10 27 18.775 +04 36 36.14 21.6 w F51 – Pan-STARRS 1, Haleakala MPS 453773
2013 02 08.50850 10 27 17.804 +04 36 39.89 21.7 w F51 – Pan-STARRS 1, Haleakala MPS 453773
2013 02 08.54230 10 27 15.744 +04 36 47.35 21.8 w F51 – Pan-STARRS 1, Haleakala MPS 453773
2013 02 14.24226 10 21 29.34 +05 00 08.3 21.6 V 691 – Steward Observatory, Kitt Peak-Spacewatch MPS 453773
2013 02 14.25989 10 21 28.25 +05 00 12.8 21.5 V 691 – Steward Observatory, Kitt Peak-Spacewatch MPS 453773
2013 02 14.27753 10 21 27.13 +05 00 17.9 21.0 V 691 – Steward Observatory, Kitt Peak-Spacewatch MPS 453773
2013 03 04.30449 10 02 39.455 +06 27 06.90 21.5 w F51 – Pan-STARRS 1, Haleakala MPS 459243
2013 03 04.31871 10 02 38.594 +06 27 10.92 21.5 w F51 – Pan-STARRS 1, Haleakala MPS 459243
2013 03 04.33296 10 02 37.715 +06 27 15.28 21.5 w F51 – Pan-STARRS 1, Haleakala MPS 459243
2013 03 04.34719 10 02 36.857 +06 27 19.24 21.7 w F51 – Pan-STARRS 1, Haleakala MPS 459243
2015 11 21.48760 09 04 14.33 +16 44 27.0 22.3 V G96 – Mt. Lemmon Survey MPS 653342
2015 11 21.49596 09 04 14.56 +16 44 24.5 22.1 V G96 – Mt. Lemmon Survey MPS 653342
2015 11 21.50430 09 04 14.81 +16 44 23.2 22.5 V G96 – Mt. Lemmon Survey MPS 653342
2015 11 21.51265 09 04 14.98 +16 44 21.8 21.6 V G96 – Mt. Lemmon Survey MPS 653342
2016 01 04.55085 08 54 39.385 +15 56 56.97 21.4 w F51 – Pan-STARRS 1, Haleakala MPS 668083
2016 01 04.56225 08 54 38.753 +15 56 58.02 21.3 w F51 – Pan-STARRS 1, Haleakala MPS 668083
2016 01 04.57364 08 54 38.096 +15 56 59.01 21.4 w F51 – Pan-STARRS 1, Haleakala MPS 668083
2016 01 04.58506 08 54 37.439 +15 57 00.03 21.6 w F51 – Pan-STARRS 1, Haleakala MPS 668083
2016 01 13.29825 08 45 52.12 +16 13 14.4   691 – Steward Observatory, Kitt Peak-Spacewatch MPS 671538
2016 01 13.31718 08 45 50.83 +16 13 16.3   691 – Steward Observatory, Kitt Peak-Spacewatch MPS 671538
2016 01 13.35018 08 45 48.60 +16 13 21.2   691 – Steward Observatory, Kitt Peak-Spacewatch MPS 671538
2016 01 30.20911 08 26 13.23 +16 53 48.2 21.3 V G96 – Mt. Lemmon Survey MPS 678732
2016 01 30.21445 08 26 12.83 +16 53 48.9 21.3 V G96 – Mt. Lemmon Survey MPS 678732
